QPF
0.00 0.00 0.00 0.00 0.00 0.00 0.00 0.00 0.00 0.00 0.00 0.00 0.00 0.00 0.00 0.00 0.00 0.00 0.00 0.00 0.00 0.00 0.00 0.00 0.00 0.00 0.00 0.00 0.00 0.00 0.00 0.00 0.00 0.00 0.00 0.00 0.00 0.00 0.00 0.00 0.00 0.00 0.00 0.00 0.00
0.00 0.00 0.00 0.00 0.00 0.00 0.00 0.00 0.00 0.00 0.00 0.00 0.00 0.00 0.00 0.00 0.00 0.00 0.00 0.00 0.00 0.00 0.00 0.00 0.00 0.00 0.00 0.00 0.00 0.00 0.00 0.00 0.00 0.00 0.00 0.00 0.00 0.00 0.00 0.00 0.00 0.00 0.00 0.00 0.00
0.00 0.00 0.00 0.00 0.00 0.00 0.00 0.00 0.00 0.00 0.00 0.00 0.00 0.00 0.00 0.00 0.00 0.00 0.00 0.00 0.00 0.00 0.00 0.00 0.00 0.00 0.00 0.00 0.00 0.00 0.00 0.00 0.00 0.00 0.00 0.00 0.00 0.00 0.00 0.00 0.00 0.00 0.00 0.00 0.00
0.00 0.00 0.00 0.00 0.00 0.00 0.00 0.00 0.00 0.00 0.00 0.00 0.00 0.00 0.00 0.00 0.00 0.00 0.00 0.00 0.00 0.00 0.00 0.00 0.00 0.00 0.00 0.00 0.00 0.00 0.00 0.00 0.00 0.00 0.00 0.00 0.00 0.00 0.00 0.00 0.00 0.00 0.00 0.00 0.00
0.00 0.00 0.00 0.00 0.00 0.00 0.00 0.00 0.00 0.00 0.00 0.00 0.00 0.00 0.00 0.00 0.00 0.00 0.00 0.00 0.00 0.00 0.00 0.00 0.00 0.00 0.00 0.00 0.00 0.00 0.00 0.00 0.00 0.00 0.00 0.00 0.00 0.00 0.00 0.00 0.00 0.00 0.00 0.00 0.00
0.00 0.00 0.00 0.00 0.00 0.00 0.00 0.00 0.00 0.00 0.00 0.00 0.00 0.00 0.00 0.00 0.00 0.00 0.00 0.00 0.00 0.00 0.00 0.00 0.00 0.00 0.00 0.00 0.00 0.00 0.00 0.00 0.00 0.00 0.00 0.00 0.00 0.00 0.00 0.00 0.00 0.00 0.00 0.00 0.00
0.00 0.00 0.00 0.00 0.00 0.00 0.00 0.00 0.00 0.00 0.00 0.00 0.00 0.00 0.00 0.00 0.00 0.00 0.00 0.00 0.00 0.00 0.00 0.00 0.00 0.00 0.00 0.00 0.00 0.00 0.00 0.00 0.00 0.00 0.00 0.00 0.00 0.00 0.00 0.00 0.00 0.00 0.00 0.00 0.00
0.00 0.00 0.00 0.00 0.00 0.00 0.00 0.00 0.00 0.00 0.00 0.00 0.00 0.00 0.00 0.00 0.00 0.00 0.00 0.00 0.00 0.00 0.00 0.00 0.00 0.00 0.00 0.00 0.00 0.00 0.00 0.00 0.00 0.00 0.00 0.00 0.00 0.00 0.00 0.00 0.00 0.00 0.00 0.00 0.00
0.00 0.00 0.00 0.00 0.00 0.00 0.00 0.00 0.00 0.00 0.00 0.00 0.00 0.00 0.00 0.00 0.00 0.00 0.00 0.00 0.00 0.00 0.00 0.00 0.00 0.00 0.00 0.00 0.00 0.00 0.00 0.00 0.00 0.00 0.00 0.00 0.00 0.00 0.00 0.00 0.00 0.00 0.00 0.00 0.00
0.00 0.00 0.00 0.00 0.00 0.00 0.00 0.00 0.00 0.00 0.00 0.00 0.00 0.00 0.00 0.00 0.00 0.00 0.00 0.00 0.00 0.00 0.00 0.00 0.00 0.00 0.00 0.00 0.00 0.00 0.00 0.00 0.00 0.00 0.00 0.00 0.00 0.00 0.00 0.00 0.00 0.00 0.00 0.00 0.00
0.00 0.00 0.00 0.00 0.00 0.00 0.00 0.00 0.00 0.00 0.00 0.00 0.00 0.00 0.00 0.00 0.00 0.00 0.00 0.00 0.00 0.00 0.00 0.00 0.00 0.00 0.00 0.00 0.00 0.00 0.00 0.00 0.00 0.00 0.00 0.00 0.00 0.00 0.00 0.00 0.00 0.00 0.00 0.00 0.00
0.00 0.00 0.00 0.00 0.00 0.00 0.00 0.00 0.00 0.00 0.00 0.00 0.00 0.00 0.00 0.00 0.00 0.00 0.00 0.00 0.00 0.00 0.00 0.00 0.00 0.00 0.00 0.00 0.00 0.00 0.00 0.00 0.00 0.00 0.00 0.00 0.00 0.00 0.00 0.00 0.00 0.00 0.00 0.00 0.00
0.00 0.00 0.00 0.00 0.00 0.00 0.00 0.00 0.00 0.00 0.00 0.00 0.00 0.00 0.00 0.00 0.00 0.00 0.00 0.00 0.00 0.00 0.00 0.00 0.00 0.00 0.00 0.00 0.00 0.00 0.00 0.00 0.00 0.00 0.00 0.00 0.00 0.00 0.00 0.00 0.00 0.00 0.00 0.00 0.00
0.00 0.00 0.00 0.00 0.00 0.00 0.00 0.00 0.00 0.00 0.00 0.00 0.00 0.00 0.00 0.00 0.00 0.00 0.00 0.00 0.00 0.00 0.00 0.00 0.00 0.00 0.00 0.00 0.00 0.00 0.00 0.00 0.00 0.00 0.00 0.00 0.00 0.00 0.00 0.00 0.00 0.00 0.00 0.00 0.00
0.00 0.00 0.00 0.00 0.00 0.00 0.00 0.00 0.00 0.00 0.00 0.00 0.00 0.00 0.00 0.00 0.00 0.00 0.00 0.00 0.00 0.00 0.00 0.00 0.00 0.00 0.00 0.00 0.00 0.00 0.00 0.00 0.00 0.00 0.00 0.00 0.00 0.00 0.00 0.00 0.00 0.00 0.00 0.00 0.00
0.00 0.00 0.00 0.00 0.00 0.00 0.00 0.00 0.00 0.00 0.00 0.00 0.00 0.00 0.00 0.00 0.00 0.00 0.00 0.00 0.00 0.00 0.00 0.00 0.00 0.00 0.00 0.00 0.00 0.00 0.00 0.00 0.00 0.00 0.00 0.00 0.00 0.00 0.00 0.00 0.00 0.00 0.00 0.00 0.00
0.00 0.00 0.00 0.00 0.00 0.00 0.00 0.00 0.00 0.00 0.00 0.00 0.00 0.00 0.00 0.00 0.00 0.00 0.00 0.00 0.00 0.00 0.00 0.00 0.00 0.00 0.00 0.00 0.00 0.00 0.00 0.00 0.00 0.00 0.00 0.00 0.00 0.00 0.00 0.00 0.00 0.00 0.00 0.00 0.00
0.00 0.00 0.00 0.00 0.00 0.00 0.00 0.00 0.00 0.00 0.00 0.00 0.00 0.00 0.00 0.00 0.00 0.00 0.00 0.00 0.00 0.00 0.00 0.00 0.00 0.00 0.00 0.00 0.00 0.00 0.00 0.00 0.00 0.00 0.00 0.00 0.00 0.00 0.00 0.00 0.00 0.00 0.00 0.00 0.00
0.00 0.00 0.00 0.00 0.00 0.00 0.00 0.00 0.00 0.00 0.00 0.00 0.00 0.00 0.00 0.00 0.00 0.00 0.00 0.00 0.00 0.00 0.00 0.00 0.00 0.00 0.00 0.00 0.00 0.00 0.00 0.00 0.00 0.00 0.00 0.00 0.00 0.00 0.00 0.00 0.00 0.00 0.00 0.00 0.00
0.00 0.00 0.00 0.00 0.00 0.00 0.00 0.00 0.00 0.00 0.00 0.00 0.00 0.00 0.00 0.00 0.00 0.00 0.00 0.00 0.00 0.00 0.00 0.00 0.00 0.00 0.00 0.00 0.00 0.00 0.00 0.00 0.00 0.00 0.00 0.00 0.00 0.00 0.00 0.00 0.00 0.00 0.00 0.00 0.00
0.00 0.00 0.00 0.00 0.00 0.00 0.00 0.00 0.00 0.00 0.00 0.00 0.00 0.00 0.00 0.00 0.00 0.00 0.00 0.00 0.00 0.00 0.00 0.00 0.00 0.00 0.00 0.00 0.00 0.00 0.00 0.00 0.00 0.00 0.00 0.00 0.00 0.00 0.00 0.00 0.00 0.00 0.00 0.00 0.00
0.00 0.00 0.00 0.00 0.00 0.00 0.00 0.00 0.00 0.00 0.00 0.00 0.00 0.00 0.00 0.00 0.00 0.00 0.00 0.00 0.00 0.00 0.00 0.00 0.00 0.00 0.00 0.00 0.00 0.00 0.00 0.00 0.00 0.00 0.00 0.00 0.00 0.00 0.00 0.00 0.00 0.00 0.00 0.00 0.00
0.00 0.00 0.00 0.00 0.00 0.00 0.00 0.00 0.00 0.00 0.00 0.00 0.00 0.00 0.00 0.00 0.00 0.00 0.00 0.00 0.00 0.00 0.00 0.00 0.00 0.00 0.00 0.00 0.00 0.00 0.00 0.00 0.00 0.00 0.00 0.00 0.00 0.00 0.00 0.00 0.00 0.00 0.00 0.00 0.00
0.00 0.00 0.00 0.00 0.00 0.00 0.00 0.00 0.00 0.00 0.00 0.00 0.00 0.00 0.00 0.00 0.00 0.00 0.00 0.00 0.00 0.00 0.00 0.00 0.00 0.00 0.00 0.00 0.00 0.00 0.00 0.00 0.00 0.00 0.00 0.00 0.00 0.00 0.00 0.00 0.00 0.00 0.00 0.00 0.00
0.00 0.00 0.00 0.00 0.00 0.00 0.00 0.00 0.00 0.00 0.00 0.00 0.00 0.00 0.00 0.00 0.00 0.00 0.00 0.00 0.00 0.00 0.00 0.00 0.00 0.00 0.00 0.00 0.00 0.00 0.00 0.00 0.00 0.00 0.00 0.00 0.00 0.00 0.00 0.00 0.00 0.00 0.00 0.00 0.00
0.00 0.00 0.00 0.00 0.00 0.00 0.00 0.00 0.00 0.00 0.00 0.00 0.00 0.00 0.00 0.00 0.00 0.00 0.00 0.00 0.00 0.00 0.00 0.00 0.00 0.00 0.00 0.00 0.00 0.00 0.00 0.00 0.00 0.00 0.00 0.00 0.00 0.00 0.00 0.00 0.00 0.00 0.00 0.00 0.00
0.00 0.00 0.00 0.00 0.00 0.00 0.00 0.00 0.00 0.00 0.00 0.00 0.00 0.00 0.00 0.00 0.00 0.00 0.00 0.00 0.00 0.00 0.00 0.00 0.00 0.00 0.00 0.00 0.00 0.00 0.00 0.00 0.00 0.00 0.00 0.00 0.00 0.00 0.00 0.00 0.00 0.00 0.00 0.00 0.00
MSLP
1015.37 1014.84 1014.32 1013.84 1013.45 1013.07 1012.71 1012.39 1011.97 1011.68 1011.54 1011.29 1011.10 1010.96 1010.86 1010.79 1010.47 1010.46 1009.12 1006.60 1006.66 1006.74 1007.23 1007.61 1007.93 1007.95 1008.00 1008.29 1008.37 1008.77 1009.38 1009.16 1008.01 1006.63 1005.89 1006.21 1007.01 1007.68 1007.90 1008.34 1008.46 1009.04 1009.59 1010.67 1012.09
1015.47 1014.91 1014.36 1013.83 1013.38 1012.98 1012.58 1012.22 1011.85 1011.40 1011.17 1011.04 1010.83 1010.75 1010.70 1010.63 1010.23 1009.15 1006.16 1006.05 1006.24 1006.77 1007.27 1007.48 1007.86 1008.16 1008.35 1008.31 1008.37 1008.66 1008.94 1007.82 1006.08 1004.97 1004.84 1005.57 1005.89 1006.89 1007.91 1008.25 1008.67 1009.17 1009.88 1011.22 1012.24
1015.54 1014.98 1014.44 1013.88 1013.35 1012.90 1012.42 1011.95 1011.62 1011.14 1010.78 1010.67 1010.60 1010.57 1010.56 1010.54 1009.73 1006.78 1005.33 1005.72 1006.16 1006.53 1006.83 1007.01 1007.41 1007.75 1008.16 1008.00 1007.97 1007.88 1007.58 1006.12 1004.94 1004.23 1003.98 1004.79 1005.76 1006.46 1007.51 1008.51 1008.29 1008.66 1009.97 1011.30 1012.22
1015.54 1014.98 1014.46 1013.93 1013.35 1012.73 1012.27 1011.82 1011.40 1010.97 1010.54 1010.47 1010.48 1010.48 1010.51 1010.34 1008.34 1005.62 1005.40 1005.56 1006.05 1006.37 1006.71 1006.83 1007.18 1007.45 1007.49 1007.54 1007.01 1006.90 1006.05 1005.81 1004.68 1003.68 1003.51 1004.63 1005.49 1006.20 1006.64 1006.69 1007.09 1008.59 1009.05 1010.37 1011.76
1015.55 1014.97 1014.43 1013.86 1013.31 1012.68 1012.06 1011.66 1011.28 1010.91 1010.50 1010.41 1010.46 1010.50 1010.53 1009.47 1006.76 1005.32 1005.40 1005.75 1006.15 1006.40 1006.48 1006.55 1006.68 1006.83 1006.87 1006.75 1006.35 1005.93 1005.25 1004.58 1004.04 1003.65 1003.31 1004.06 1004.74 1005.38 1006.20 1006.37 1007.56 1008.79 1010.16 1010.84 1011.45
1015.60 1014.99 1014.35 1013.73 1013.10 1012.60 1011.96 1011.47 1011.13 1010.81 1010.52 1010.38 1010.42 1010.50 1010.10 1007.98 1005.24 1005.22 1005.56 1006.07 1006.16 1006.35 1006.28 1006.50 1006.54 1006.35 1006.36 1006.32 1006.31 1005.46 1005.03 1004.37 1003.80 1003.44 1003.35 1003.73 1004.92 1005.31 1006.37 1006.92 1007.97 1008.87 1010.18 1011.07 1011.61
1015.59 1015.02 1014.30 1013.61 1012.92 1012.27 1011.78 1011.29 1010.92 1010.69 1010.50 1010.42 1010.40 1010.28 1009.16 1006.20 1005.03 1005.36 1005.66 1005.88 1005.87 1006.07 1006.16 1006.01 1006.04 1006.28 1006.16 1006.21 1005.85 1005.55 1005.27 1004.31 1003.50 1003.34 1003.44 1003.68 1004.97 1005.43 1006.01 1007.25 1007.90 1009.04 1010.29 1011.23 1011.74
1015.50 1014.88 1014.22 1013.45 1012.76 1011.95 1011.38 1011.01 1010.63 1010.48 1010.43 1010.46 1010.44 1010.07 1007.77 1005.21 1005.22 1005.69 1005.78 1005.80 1005.76 1006.01 1006.04 1005.76 1006.04 1006.18 1006.38 1006.07 1005.95 1006.07 1005.73 1005.07 1003.79 1003.33 1003.54 1003.91 1005.45 1006.23 1006.61 1007.43 1008.52 1009.15 1009.92 1010.78 1011.30
1015.35 1014.64 1013.92 1013.19 1012.51 1011.81 1011.04 1010.54 1010.20 1010.25 1010.35 1010.45 1010.37 1009.53 1006.90 1005.51 1005.44 1004.96 1005.18 1005.32 1005.63 1005.86 1005.86 1005.77 1005.83 1006.49 1006.44 1006.64 1006.86 1006.82 1006.20 1005.32 1004.01 1003.25 1003.71 1004.31 1005.73 1006.37 1007.01 1007.63 1008.50 1009.19 1009.69 1010.21 1010.84
1015.18 1014.42 1013.62 1012.88 1012.19 1011.63 1010.91 1010.45 1010.15 1010.31 1010.38 1010.25 1009.64 1008.98 1006.46 1005.09 1004.54 1004.56 1004.73 1004.95 1005.34 1005.64 1005.80 1005.90 1006.57 1006.98 1007.42 1007.52 1007.47 1006.73 1006.06 1004.98 1004.37 1003.78 1003.97 1004.59 1005.74 1006.47 1007.13 1007.48 1008.10 1008.89 1009.55 1009.88 1010.20
1015.08 1014.19 1013.32 1012.43 1011.80 1011.25 1010.98 1010.59 1010.52 1010.15 1009.52 1008.12 1007.59 1006.66 1005.26 1004.26 1003.88 1004.23 1004.52 1005.03 1005.44 1005.83 1006.18 1006.38 1007.13 1007.10 1006.85 1006.72 1006.47 1006.52 1006.00 1004.86 1004.12 1003.81 1004.38 1005.12 1005.97 1006.63 1007.17 1008.06 1008.52 1008.90 1009.21 1009.52 1009.78
1015.01 1014.05 1013.08 1012.09 1011.25 1010.74 1010.66 1009.91 1008.85 1008.71 1007.95 1006.52 1006.28 1005.78 1004.82 1004.38 1004.33 1004.08 1004.17 1005.07 1005.37 1005.86 1006.16 1006.70 1006.52 1005.47 1005.53 1005.85 1006.07 1005.94 1005.53 1004.99 1004.50 1004.35 1005.13 1006.05 1006.82 1007.18 1007.60 1007.69 1007.68 1008.09 1008.82 1009.04 1009.74
1014.88 1014.05 1013.00 1011.81 1010.95 1010.69 1010.24 1008.69 1007.93 1007.41 1007.65 1005.74 1005.05 1004.54 1003.91 1004.27 1004.12 1003.74 1004.02 1004.46 1004.98 1005.61 1006.03 1006.32 1005.22 1004.81 1005.12 1005.03 1005.28 1005.29 1005.16 1005.11 1005.16 1005.31 1005.81 1006.64 1007.86 1007.96 1008.01 1008.07 1007.93 1008.01 1007.89 1008.53 1008.93
1014.74 1014.09 1013.22 1011.79 1010.86 1010.82 1009.33 1007.97 1007.41 1007.05 1007.27 1005.17 1004.09 1002.82 1003.12 1003.33 1003.72 1002.99 1003.41 1004.10 1004.82 1005.22 1005.69 1005.74 1004.66 1004.40 1004.46 1004.42 1004.67 1005.07 1005.00 1005.44 1005.87 1006.51 1007.14 1007.48 1009.29 1008.80 1008.77 1008.51 1008.34 1008.15 1008.33 1008.58 1009.14
1014.59 1014.00 1013.49 1013.19 1012.45 1011.00 1008.53 1007.61 1007.07 1007.01 1006.75 1003.84 1002.94 1001.85 1002.29 1003.19 1003.03 1002.96 1003.06 1003.72 1004.38 1004.84 1005.36 1005.09 1004.39 1004.10 1003.99 1003.94 1004.29 1004.78 1005.04 1005.90 1006.45 1007.52 1008.09 1008.43 1008.98 1009.08 1009.24 1009.19 1008.80 1008.61 1008.70 1009.00 1009.36
1014.18 1013.70 1013.49 1012.97 1012.52 1009.46 1008.38 1007.70 1007.26 1007.84 1005.49 1003.21 1002.22 1002.33 1002.96 1003.14 1003.01 1003.11 1003.30 1003.58 1004.05 1004.68 1005.06 1004.88 1003.90 1003.61 1003.32 1003.58 1004.00 1004.69 1005.68 1006.96 1008.04 1008.82 1009.77 1009.21 1009.35 1009.70 1009.07 1008.11 1008.85 1008.94 1009.15 1009.33 1009.72
1013.51 1012.80 1013.23 1012.46 1010.32 1008.76 1008.44 1008.23 1008.59 1007.16 1004.40 1003.22 1002.62 1002.61 1002.98 1003.33 1003.38 1003.40 1003.78 1004.20 1004.70 1005.25 1005.53 1004.94 1004.09 1003.30 1003.04 1003.76 1004.40 1005.32 1007.31 1008.77 1010.22 1010.79 1010.67 1009.85 1009.45 1008.80 1007.98 1008.02 1008.08 1008.66 1009.37 1009.89 1010.05
1012.69 1011.58 1010.81 1010.25 1009.20 1009.13 1009.01 1009.13 1008.57 1005.89 1004.38 1002.66 1002.65 1003.03 1003.49 1003.55 1003.59 1003.71 1004.17 1004.70 1004.93 1005.20 1005.99 1005.55 1004.51 1003.60 1003.20 1003.61 1004.81 1006.17 1007.73 1009.59 1011.14 1012.24 1011.33 1010.03 1009.56 1008.28 1007.80 1007.99 1008.71 1009.02 1009.34 1010.11 1010.55
1012.05 1010.92 1010.44 1008.07 1008.63 1009.24 1009.45 1009.41 1007.45 1005.58 1003.93 1003.01 1002.86 1003.26 1003.62 1003.42 1003.61 1004.05 1004.33 1004.49 1004.37 1004.71 1005.50 1005.70 1004.98 1003.85 1003.44 1003.52 1004.54 1006.54 1008.05 1009.35 1011.11 1012.56 1012.46 1011.24 1009.82 1008.63 1008.37 1008.32 1009.01 1009.50 1009.85 1010.33 1010.55
1012.94 1011.78 1009.47 1007.28 1007.86 1008.58 1009.21 1008.57 1006.91 1005.16 1003.78 1003.10 1002.99 1002.94 1003.41 1003.51 1003.86 1003.97 1004.19 1003.34 1003.92 1003.90 1004.00 1005.20 1005.57 1004.72 1004.04 1004.13 1005.19 1005.94 1007.82 1009.64 1011.42 1012.91 1013.03 1011.99 1010.87 1010.00 1009.47 1009.35 1009.50 1009.89 1010.10 1010.35 1010.49
1013.06 1011.75 1007.71 1007.17 1007.37 1008.58 1008.99 1008.06 1006.34 1004.64 1003.74 1003.23 1002.85 1002.80 1002.89 1003.22 1003.51 1003.86 1003.77 1002.86 1002.88 1003.71 1004.24 1005.45 1006.05 1006.17 1005.47 1005.57 1006.09 1007.03 1008.18 1010.11 1011.70 1012.93 1013.24 1012.73 1011.26 1009.42 1009.23 1009.28 1009.41 1009.69 1010.04 1010.28 1010.78
1014.12 1012.05 1007.86 1007.70 1008.28 1008.91 1008.57 1007.20 1005.83 1004.65 1003.92 1003.38 1002.92 1002.66 1002.56 1002.75 1003.16 1003.49 1003.30 1002.77 1002.25 1003.06 1004.76 1005.42 1006.61 1007.46 1007.06 1006.51 1006.58 1007.19 1008.46 1009.70 1011.64 1013.11 1013.19 1012.48 1010.71 1009.41 1009.10 1009.24 1009.56 1009.87 1010.32 1010.77 1011.10
1015.53 1013.18 1008.48 1007.91 1008.65 1008.98 1007.97 1006.78 1005.65 1004.84 1004.16 1003.64 1003.12 1002.53 1002.29 1002.66 1002.96 1002.83 1002.62 1002.60 1002.63 1003.14 1003.99 1005.33 1007.18 1008.22 1008.31 1007.92 1007.24 1007.67 1008.59 1009.66 1010.92 1011.82 1012.69 1012.53 1010.95 1009.53 1009.34 1009.42 1009.93 1010.25 1010.83 1011.20 1011.62
1016.08 1014.23 1010.68 1009.14 1008.98 1008.53 1008.13 1007.02 1005.91 1004.59 1004.14 1003.56 1003.12 1002.74 1002.64 1002.70 1002.71 1002.87 1002.83 1002.75 1002.89 1003.40 1004.28 1005.08 1007.78 1008.08 1008.22 1008.02 1007.96 1008.39 1008.69 1009.27 1010.46 1011.74 1012.36 1011.88 1010.92 1010.13 1010.16 1010.30 1010.60 1010.99 1011.37 1011.90 1012.37
1016.03 1014.82 1013.37 1011.50 1010.37 1009.62 1008.63 1007.32 1006.31 1005.35 1003.97 1003.22 1003.12 1002.68 1002.64 1003.33 1003.39 1003.47 1003.40 1003.46 1003.76 1004.41 1005.02 1005.97 1008.31 1008.73 1008.89 1008.55 1008.26 1008.53 1009.00 1009.43 1010.01 1010.71 1011.37 1011.09 1010.94 1010.35 1010.21 1010.39 1010.61 1011.16 1011.79 1012.15 1012.53
1016.01 1015.45 1013.94 1012.68 1011.40 1010.22 1009.07 1008.24 1007.08 1005.88 1004.91 1003.76 1003.42 1002.82 1002.64 1003.37 1003.43 1003.91 1004.04 1004.34 1004.70 1005.40 1006.35 1007.52 1009.45 1009.69 1010.21 1009.42 1008.90 1009.06 1009.11 1009.26 1009.83 1010.17 1010.49 1010.62 1010.59 1009.93 1010.03 1010.50 1011.33 1011.62 1011.84 1012.22 1012.56
1016.26 1015.59 1014.94 1013.31 1012.06 1010.81 1009.96 1008.98 1007.52 1006.80 1004.58 1003.59 1003.31 1003.51 1003.45 1003.57 1003.75 1004.20 1004.43 1004.73 1005.06 1006.01 1007.53 1008.68 1009.95 1011.13 1011.48 1010.62 1009.79 1009.63 1009.05 1009.29 1009.71 1010.10 1010.42 1010.76 1010.19 1010.03 1010.61 1010.90 1011.39 1011.87 1012.13 1012.45 1012.69
Thickness
5774 5779 5784 5788 5791 5795 5800 5804 5808 5811 5813 5816 5818 5820 5822 5823 5826 5827 5830 5855 5856 5857 5852 5846 5841 5839 5839 5829 5832 5826 5783 5768 5786 5799 5813 5821 5807 5816 5824 5811 5816 5811 5803 5799 5793
5773 5778 5784 5789 5793 5797 5802 5806 5810 5815 5817 5819 5822 5823 5825 5826 5829 5831 5864 5865 5864 5859 5848 5838 5829 5828 5817 5819 5820 5806 5777 5790 5820 5830 5824 5824 5824 5818 5812 5810 5808 5806 5808 5801 5793
5772 5777 5783 5788 5794 5799 5804 5809 5813 5818 5822 5823 5825 5826 5827 5828 5831 5846 5872 5869 5866 5863 5857 5850 5842 5831 5810 5819 5818 5811 5792 5820 5832 5846 5847 5829 5826 5831 5813 5799 5812 5807 5804 5798 5791
5771 5777 5782 5788 5794 5800 5805 5810 5816 5821 5825 5826 5826 5827 5828 5830 5816 5866 5873 5872 5867 5865 5857 5847 5838 5821 5813 5811 5829 5811 5825 5827 5838 5851 5853 5829 5833 5824 5824 5825 5836 5823 5821 5808 5795
5769 5776 5782 5788 5794 5800 5807 5812 5816 5821 5826 5827 5827 5827 5829 5829 5841 5874 5873 5871 5868 5862 5851 5843 5834 5827 5814 5822 5827 5825 5832 5840 5846 5848 5855 5844 5836 5831 5829 5839 5836 5825 5812 5804 5798
5767 5774 5782 5788 5795 5801 5807 5813 5817 5822 5825 5827 5827 5828 5830 5824 5874 5875 5873 5867 5864 5858 5852 5846 5838 5842 5829 5827 5823 5837 5834 5838 5848 5851 5851 5845 5835 5839 5834 5838 5827 5821 5808 5802 5798
5765 5772 5780 5788 5795 5802 5808 5814 5818 5822 5824 5826 5827 5830 5832 5844 5875 5874 5871 5867 5868 5861 5850 5855 5854 5840 5839 5824 5839 5836 5823 5834 5847 5850 5846 5847 5829 5826 5839 5833 5824 5817 5807 5801 5798
5763 5771 5779 5787 5795 5803 5810 5815 5820 5822 5823 5824 5825 5828 5830 5872 5873 5868 5868 5865 5868 5864 5859 5861 5857 5843 5835 5842 5829 5819 5818 5802 5839 5845 5847 5839 5801 5824 5836 5827 5816 5815 5811 5804 5800
5761 5770 5778 5787 5794 5802 5811 5817 5821 5822 5822 5823 5825 5828 5833 5869 5858 5872 5872 5861 5862 5861 5859 5861 5853 5831 5831 5813 5795 5798 5789 5801 5822 5847 5840 5834 5808 5824 5832 5826 5816 5813 5812 5810 5805
5759 5768 5777 5786 5794 5802 5810 5815 5818 5819 5820 5822 5827 5822 5844 5846 5864 5869 5874 5869 5856 5852 5846 5841 5822 5808 5802 5792 5773 5796 5797 5809 5809 5835 5834 5826 5814 5821 5826 5826 5820 5815 5813 5813 5811
5755 5766 5776 5787 5794 5801 5806 5811 5812 5813 5820 5827 5833 5836 5848 5866 5876 5864 5867 5857 5851 5840 5814 5826 5803 5792 5805 5809 5814 5808 5803 5811 5827 5840 5822 5818 5812 5814 5822 5818 5814 5814 5815 5815 5814
5751 5763 5774 5785 5795 5802 5805 5812 5820 5823 5809 5837 5838 5840 5854 5861 5842 5855 5867 5837 5831 5814 5823 5806 5793 5826 5828 5820 5809 5803 5805 5805 5820 5834 5822 5810 5801 5814 5815 5819 5823 5822 5818 5819 5815
5747 5757 5770 5783 5794 5799 5805 5816 5829 5833 5802 5826 5840 5840 5848 5852 5838 5843 5855 5843 5828 5815 5812 5797 5819 5835 5824 5823 5811 5811 5804 5808 5809 5819 5817 5804 5786 5799 5813 5818 5822 5828 5832 5829 5822
5742 5751 5762 5778 5791 5792 5804 5821 5827 5830 5772 5807 5828 5845 5851 5851 5832 5863 5861 5844 5827 5812 5812 5807 5829 5829 5826 5821 5814 5798 5823 5817 5811 5796 5775 5802 5741 5785 5794 5805 5813 5817 5823 5825 5820
5737 5746 5754 5761 5769 5783 5808 5819 5825 5817 5742 5823 5829 5870 5853 5835 5841 5845 5863 5844 5817 5819 5815 5807 5821 5823 5817 5820 5823 5809 5827 5814 5810 5786 5786 5786 5754 5765 5788 5789 5801 5810 5816 5816 5817
5733 5741 5747 5756 5762 5791 5802 5811 5811 5758 5744 5812 5833 5826 5823 5831 5835 5842 5840 5849 5842 5821 5817 5813 5838 5833 5828 5833 5833 5827 5816 5793 5779 5769 5749 5774 5764 5756 5773 5797 5798 5808 5811 5812 5810
5731 5741 5742 5751 5771 5789 5795 5792 5746 5735 5805 5804 5809 5818 5814 5811 5819 5825 5817 5809 5796 5785 5787 5806 5817 5834 5841 5820 5822 5808 5774 5736 5742 5731 5740 5765 5766 5768 5801 5806 5811 5804 5803 5802 5806
5729 5744 5753 5761 5776 5778 5779 5758 5735 5774 5782 5817 5810 5805 5796 5807 5811 5811 5804 5793 5807 5799 5774 5772 5772 5817 5833 5819 5802 5795 5778 5736 5730 5720 5738 5767 5755 5777 5805 5809 5807 5807 5806 5801 5798
5725 5740 5748 5769 5771 5768 5755 5726 5745 5767 5797 5801 5802 5788 5788 5805 5807 5803 5793 5793 5806 5805 5778 5767 5782 5824 5829 5830 5818 5792 5769 5779 5736 5728 5725 5738 5772 5795 5798 5796 5796 5793 5796 5794 5795
5705 5718 5740 5766 5768 5759 5737 5731 5756 5779 5796 5798 5780 5793 5774 5788 5791 5790 5786 5815 5811 5818 5819 5795 5771 5808 5822 5826 5814 5804 5791 5755 5733 5726 5725 5728 5746 5747 5779 5781 5785 5785 5787 5788 5792
5694 5712 5748 5757 5760 5737 5718 5731 5760 5784 5793 5785 5786 5787 5789 5787 5784 5784 5792 5816 5824 5814 5816 5796 5780 5781 5802 5790 5781 5780 5768 5746 5737 5721 5707 5703 5726 5769 5775 5779 5783 5784 5786 5784 5781
5668 5694 5736 5741 5721 5713 5718 5743 5768 5774 5781 5783 5787 5790 5787 5790 5787 5780 5786 5805 5830 5819 5794 5799 5771 5752 5776 5792 5796 5787 5770 5754 5727 5729 5711 5712 5728 5777 5782 5781 5778 5777 5777 5775 5774
5641 5658 5717 5726 5701 5705 5726 5744 5760 5763 5766 5772 5775 5786 5795 5786 5782 5792 5798 5814 5818 5812 5796 5796 5759 5737 5750 5765 5781 5769 5772 5751 5735 5727 5712 5707 5721 5777 5774 5773 5774 5770 5767 5766 5763
5632 5659 5687 5700 5702 5712 5717 5727 5737 5765 5760 5767 5774 5782 5780 5781 5792 5787 5793 5804 5811 5807 5801 5795 5750 5753 5734 5751 5762 5756 5764 5754 5737 5713 5714 5716 5741 5762 5763 5759 5759 5760 5758 5752 5749
5618 5644 5656 5667 5685 5691 5704 5720 5726 5734 5759 5764 5764 5775 5773 5763 5772 5773 5784 5791 5797 5795 5792 5783 5751 5756 5755 5763 5767 5763 5756 5753 5745 5738 5724 5734 5733 5749 5753 5754 5755 5754 5749 5747 5743
5614 5625 5635 5649 5664 5681 5688 5697 5711 5726 5740 5745 5749 5767 5774 5760 5768 5766 5774 5777 5779 5781 5774 5762 5736 5751 5737 5751 5756 5746 5751 5748 5744 5742 5738 5733 5732 5751 5755 5749 5745 5744 5743 5738 5734
5590 5606 5617 5639 5652 5669 5675 5686 5705 5713 5739 5755 5755 5747 5753 5761 5774 5777 5778 5772 5778 5769 5754 5746 5731 5720 5714 5732 5736 5719 5737 5737 5737 5736 5731 5718 5735 5747 5742 5742 5737 5731 5728 5724 5723